User: anonymous
Location: Minneapolis
(44.9800°N, 93.2640°W)
Time: 11:48:26
(UTC-05:00)
Language:

Iridium 96 - Orbit

View from above orbital plane
View from above orbital plane
View from above satellite
View from above satellite

Ground track
Ground track

The orbit data is extracted from the following two-line orbital elements,

1 27376U 02005E   14210.45931184 -.00000000  00000-0 -70986-5 0  5820
2 27376 086.3970 039.2988 0002231 021.1979 338.9309 14.34214913665088
Epoch (UTC): 29 July 2014 11:01:24
Eccentricity: 0.0002231
inclination: 86.3970°
perigee height: 776 km
apogee height: 779 km
right ascension of ascending node: 39.2988°
argument of perigee: 21.1979°
revolutions per day: 14.34214913
mean anomaly at epoch: 338.9309°
orbit number at epoch: 66508

The dashed part of the orbit path shows where the satellite is in the earth's shadow,  

DLR